Change the Weather History Date:

Friday, February 22, 2013

  Actual Average Record
Temperature  
Mean Temperature 72 °F -  
Max Temperature 79 °F 80 °F 85 °F (1977)
Min Temperature 64 °F 60 °F 32 °F (2011)
Cooling Degree Days 6    
Growing Degree Days 22 (Base 50)    
Moisture  
Dew Point 64 °F    
Average Humidity 75    
Maximum Humidity 90    
Minimum Humidity 54    
Precipitation  
Precipitation 0.02 in - - ()
Sea Level Pressure  
Sea Level Pressure 30.12 in    
Wind  
Wind Speed 3 mph (NW)    
Max Wind Speed 12 mph    
Max Gust Speed -    
Visibility 10 miles    
Events Rain    
Averages and records for this station are not official NWS values.
T = Trace of Precipitation, MM = Missing Value Source: NWS Daily Summary

Daily Weather History Graph

Daily Weather History Graph

Search for Another Location

Airport or City:

Trip Planner

Search our weather history database for the weather conditions in past years. The results will help you decide how hot, cold, wet, or windy it might be!

Date:

Astronomy

Feb. 22, 2013 Rise Set
Actual Time 7:05 AM HST 6:40 PM HST
Civil Twilight 6:42 AM HST 7:02 PM HST
Nautical Twilight 6:16 AM HST 7:28 PM HST
Astronomical Twilight 5:50 AM HST 7:54 PM HST
Moon 4:14 PM HST (2/22) 4:44 AM HST (2/22)
Length of Visible Light 12h 20m
Length of Day
11h 34m
Waxing Gibbous, 91% of the Moon is Illuminated
Feb 22
Waxing Gibbous
Feb 25
Full
Mar 4
Last Quarter
Mar 11
New
Mar 19
First Quarter

Hourly Weather History & Observations

Time (HST) Temp. Dew Point Humidity Pressure Visibility Wind Dir Wind Speed Gust Speed Precip Events Conditions
12:56 AM 66.9 °F 63.0 °F 87% 30.16 in 10.0 mi Calm Calm - N/A   Clear
1:56 AM 66.9 °F 64.0 °F 90% 30.14 in 10.0 mi ENE 3.5 mph - N/A   Clear
2:56 AM 66.9 °F 64.0 °F 90% 30.12 in 10.0 mi East 3.5 mph - N/A   Clear
3:56 AM - - N/A% 30.11 in 10.0 mi ENE 3.5 mph - N/A   Clear
4:56 AM 66.0 °F 62.1 °F 87% 30.10 in 10.0 mi Calm Calm - N/A   Clear
5:56 AM 64.9 °F 61.0 °F 87% 30.10 in 10.0 mi East 3.5 mph - N/A   Clear
6:56 AM 64.9 °F 61.0 °F 87% 30.12 in 10.0 mi Calm Calm - N/A   Partly Cloudy
7:56 AM 66.0 °F 62.1 °F 87% 30.14 in 10.0 mi East 3.5 mph - N/A   Clear
8:56 AM 73.9 °F 69.1 °F 85% 30.16 in 10.0 mi Calm Calm - N/A   Clear
9:56 AM 73.9 °F 66.0 °F 76% 30.17 in 10.0 mi Calm Calm - N/A   Scattered Clouds
10:56 AM 75.9 °F 66.0 °F 71% 30.15 in 10.0 mi WSW 6.9 mph - N/A   Partly Cloudy
11:56 AM 77.0 °F 64.9 °F 66% 30.14 in 10.0 mi WNW 9.2 mph - N/A   Mostly Cloudy
12:56 PM 79.0 °F 63.0 °F 58% 30.11 in 10.0 mi WNW 8.1 mph - N/A   Scattered Clouds
1:56 PM 79.0 °F 63.0 °F 58% 30.09 in 10.0 mi WNW 9.2 mph - 0.01 in   Mostly Cloudy
2:56 PM 77.0 °F 69.1 °F 76% 30.07 in 10.0 mi NNW 9.2 mph - 0.01 in Rain Light Rain
3:56 PM 79.0 °F 62.1 °F 56% 30.06 in 10.0 mi SSW 10.4 mph - 0.00 in   Mostly Cloudy
4:56 PM 78.1 °F 66.9 °F 68% 30.06 in 10.0 mi West 11.5 mph - 0.00 in   Mostly Cloudy
5:56 PM 79.0 °F 61.0 °F 54% 30.08 in 10.0 mi NW 5.8 mph - N/A   Overcast
6:56 PM 75.9 °F 63.0 °F 64% 30.09 in 10.0 mi SW 11.5 mph - N/A   Mostly Cloudy
7:56 PM 73.9 °F 61.0 °F 64% 30.10 in 10.0 mi Calm Calm - N/A   Clear
8:56 PM 70.0 °F 62.1 °F 76% 30.13 in 10.0 mi Calm Calm - N/A   Clear
9:56 PM 70.0 °F 64.0 °F 81% 30.14 in 10.0 mi Calm Calm - N/A   Clear
10:56 PM 71.1 °F 62.1 °F 73% 30.14 in 10.0 mi Calm Calm - N/A   Clear
11:56 PM 69.1 °F 64.0 °F 84% 30.14 in 10.0 mi Calm Calm - N/A   Partly Cloudy